カタログに戻る

FENGYUN 1C DEB

運用中SSO
NORAD 41824·DEBRIS·🇨🇳 China

打ち上げ May 10, 1999 から Taiyuan Satellite Launch Center

Loading…

次のパス (今後24時間)

TLE

最新Source: Space-Track

元期: Sep 14, 2026, 03:24 UTC

1 41824U 99025EYB 26257.14230924  .00002002  00000-0  84688-3 0  9992
2 41824  98.7124 324.4323 0057330 148.3036 212.1616 14.25738493512829

AllMySatでFENGYUN 1C DEBをリアルタイム追跡

Download on the App Store